{"data":{"norad_id":48979,"intl_designator":"2021-060N","name":"ONEWEB-0261","alt_names":[],"object_type":"PAYLOAD","status":"ACTIVE","operator":null,"country":"UK","launch_date":"2021-07-01","launch_site_code":"VOSTO","launch_vehicle":null,"mission":null,"orbit_class":"UNKNOWN","rcs_meters":null,"size_class":null,"mass_kg":null,"dimensions":null,"purposes":["comms"],"wikipedia_slug":null,"has_3d_model":false,"image_url":null,"decayed_at":null,"tle_current":{"epoch":"2026-09-20T03:09:13.612320Z","epoch_age_seconds":53781,"freshness":"FRESH","line1":"1 48979U 21060N   26263.13140755  .00000050  00000+0  97629-4 0  9992","line2":"2 48979  87.9144 209.9308 0002136  68.8243 291.3116 13.16594494252150","mean_motion":13.16594494,"eccentricity":0.0002136,"inclination_deg":87.9144,"raan_deg":209.9308,"arg_perigee_deg":68.8243,"mean_anomaly_deg":291.3116,"bstar":9.7629e-5,"rev_number":25215,"period_min":109.37308385857,"perigee_km":1196.1375472437,"apogee_km":1199.3739686299,"semimajor_km":7575.8927579368,"source":"CELESTRAK","updated_at":"2026-09-20T09:00:44.625352Z"}}}